Home   Weather   Córdoba   Past weeks

Flag for Spain Past Weather in Córdoba, Spain — Yesterday and Last 2 Weeks

63 °F

Passing clouds.

Feels Like: 63 °F
Forecast: 62 / 68 °F
Wind: 2 mph from North

Location: Moron De La Frontera Airport

Current Time: Oct 22, 2016 at 3:53:53 AM

Latest Report: Oct 22, 2016 at 3:00 AM

Visibility: 4 mi

Pressure: 29.86 "Hg

Humidity: 94%

Dew Point: 61 °F

Location of CórdobaLocation

Past Weather in Córdoba — Graph


Córdoba Temperature Yesterday

Maximum temperature yesterday: 77 °F (at 3:00 PM)
Minimum temperature yesterday: 61 °F (at 8:00 AM)
Average temperature yesterday: 69 °F

High & Low Weather Summary for the Past Weeks

High90 °F (Oct 7, 6:00 PM)100% (Oct 12, 11:00 AM)30.21 "Hg (Oct 12, 11:00 AM)
Low50 °F (Oct 15, 7:00 AM)22% (Oct 7, 5:00 PM)29.59 "Hg (Oct 13, 6:00 AM)
Average68 °F73%29.97 "Hg
* Reported Oct 7 2:00 AM — Oct 22 2:00 AM, Córdoba, Weather by CustomWeather, © 2016

Note: Actual official high and low records may vary slightly from our data, if they occured in-between our weather recording intervals... More about our weather records


Córdoba Weather History for the Previous 24 Hours

Scroll right to see more
Time TempWeatherWind HumidityBarometerVisibility
2:00 AM
Sat, Oct 22
64 °FClear.2 mph94%29.86 "Hg4 mi
1:00 AM64 °FClear.1 mph94%29.89 "Hg6 mi
12:00 AM66 °FClear.5 mph88%29.89 "Hg6 mi
11:00 PM
Fri, Oct 21
68 °FPassing clouds.7 mph88%29.89 "Hg6 mi
10:00 PM68 °FPassing clouds.8 mph88%29.89 "Hg6 mi
9:00 PM70 °FPassing clouds.9 mph78%29.89 "Hg6 mi
8:00 PM72 °FPassing clouds.8 mph73%29.86 "HgN/A
7:00 PM75 °FScattered clouds.10 mph61%29.86 "HgN/A
6:00 PM77 °FScattered clouds.8 mph57%29.86 "HgN/A
5:00 PM77 °FBroken clouds.6 mph57%29.86 "HgN/A
4:00 PM77 °FScattered clouds.6 mph57%29.86 "HgN/A
3:00 PM77 °FScattered clouds.2 mph57%29.89 "HgN/A
2:00 PM73 °FPassing clouds.2 mph65%29.89 "HgN/A
1:00 PM73 °FPassing clouds.1 mph69%29.92 "Hg6 mi
12:00 PM72 °FPassing clouds.1 mph73%29.92 "Hg5 mi
11:00 AM68 °FFog.3 mph88%29.92 "Hg3 mi
10:00 AM63 °FFog.2 mph94%29.92 "Hg3 mi
9:00 AM61 °FFog.3 mph100%29.89 "Hg2 mi
8:00 AM61 °FFog.3 mph100%29.89 "Hg2 mi
7:00 AM63 °FFog.1 mph100%29.89 "Hg2 mi
6:00 AM64 °FFog.1 mph94%29.86 "Hg2 mi
5:00 AM64 °FFog.2 mph94%29.89 "Hg2 mi
4:00 AM64 °FFog.3 mph94%29.89 "Hg2 mi
3:00 AM63 °FFog.5 mph94%29.89 "Hg2 mi
Weather by CustomWeather, © 2016

See weather overviewHow to use our weather pages